Location: Unnamed
(53.9021°N, 27.5568°E)
Time: 00:33:21
(UTC+03:00)

STARLINK-73 - Pass Details

Date: 25 January 2020
Orbit: 528 x 531 km, 53.0° (Epoch: 24 February)

Event Time Altitude Azimuth Distance (km) Brightness Sun altitude
Exits shadow 05:36:57 20° 115° (ESE) 1,259 5.9 -30.7°
Drops below altitude 10° 05:38:54 10° 90° (E) 1,781 7.1 -30.4°
Sets 05:41:24 0° 76° (ENE) 2,675 8.3 -30.1°
